Regional Weather Roundup
Issued by NWS

Home | Current Version | Previous Version | Text Only | Print | Product List | Glossary On
Versions: 1 2 3 4 5 6 7 8 9 10 11 12 13 14 15 16 17 18 19 20 21 22 23 24 25 26 27 28 29 30 31 32 33 34 35 36 37 38 39 40 41 42 43 44 45 46 47 48 49 50
000
ASUS45 KPSR 301810
RWRAZ

ARIZONA HOURLY REGIONAL WEATHER ROUNDUP
NATIONAL WEATHER SERVICE PHOENIX AZ
1100 AM MST SAT MAY 30 2015

NOTE: FAIR INDICATES FEW OR NO CLOUDS BELOW 12,000 FEET WITH NO
SIGNIFICANT WEATHER AND/OR OBSTRUCTIONS TO VISIBILITY.

AZZ001>003-036-301900-
NORTHWEST ARIZONA

CITY           SKY/WX    TMP DP  RH WIND       PRES   REMARKS
KINGMAN        SUNNY     91  16   6 SW10      30.08S
6HR MIN TEMP:  63; 6HR MAX TEMP:  91;

$$

AZZ004>008-015-016-018-301900-
NORTH CENTRAL ARIZONA

CITY           SKY/WX    TMP DP  RH WIND       PRES   REMARKS
GRAND CANYON   MOSUNNY   75  32  20 VRB7      30.29F
6HR MIN TEMP:  43; 6HR MAX TEMP:  76;

WILLIAMS       MOSUNNY   75  27  16 SE8       30.36F
PRESCOTT       SUNNY     84  30  14 VRB5      30.18F
6HR MIN TEMP:  51; 6HR MAX TEMP:  84;

FLAGSTAFF      MOSUNNY   75  29  18 NE8       30.32F
6HR MIN TEMP:  39; 6HR MAX TEMP:  75;

PAYSON         SUNNY     86  30  13 S8        30.21S
PAGE           SUNNY     81  41  24 NE6       30.17F
6HR MIN TEMP:  63; 6HR MAX TEMP:  81;

$$

AZZ009>014-017-301900-
NORTHEAST ARIZONA

CITY           SKY/WX    TMP DP  RH WIND       PRES   REMARKS
WINSLOW        SUNNY     83  34  17 VRB5      30.20F
6HR MIN TEMP:  47; 6HR MAX TEMP:  83;

SAINT JOHNS    SUNNY     81  30  15 VRB5      30.23S
6HR MIN TEMP:  46; 6HR MAX TEMP:  82;

WINDOW ROCK    SUNNY     75  26  16 VRB5      30.31F
6HR MIN TEMP:  39; 6HR MAX TEMP:  75;

SHOW LOW       SUNNY     75  23  14 NE6G16    30.29S
$$

AZZ023-301900-
GREATER PHOENIX AREA

CITY           SKY/WX    TMP DP  RH WIND       PRES   REMARKS
PHOENIX        MOSUNNY   93  32  11 CALM      29.92S
6HR MIN TEMP:  74; 6HR MAX TEMP:  95;

BUCKEYE        SUNNY     91  36  14 S5        29.93F
GLENDALE       MOSUNNY   93  37  14 VRB5      29.94S
LUKE AFB       SUNNY     91  37  15 S6        29.92S
6HR MIN TEMP:  69; 6HR MAX TEMP:  91;

DEER VALLEY    SUNNY     93  29  10 VRB7      29.94S
6HR MIN TEMP:  69; 6HR MAX TEMP:  93;

SCOTTSDALE     SUNNY     92  31  11 VRB5      29.96S
6HR MIN TEMP:  69; 6HR MAX TEMP:  93;

MESA-FALCON    MOSUNNY   91  34  13 S8        29.94S
MESA-GATEWAY   MOSUNNY   91  37  15 VRB5      29.97S
CHANDLER       MOSUNNY   91  37  15 SW7       29.94F
$$

AZZ027-028-301900-
SOUTHWEST MARICOPA COUNTY AND PINAL COUNTY

CITY           SKY/WX    TMP DP  RH WIND       PRES   REMARKS
CASA GRANDE    SUNNY     91  37  15 CALM      29.95S
6HR MIN TEMP:  63; 6HR MAX TEMP:  93;

GILA BEND      FAIR      95  30  10 NW9       29.91S
6HR MIN TEMP:  69; 6HR MAX TEMP:  96;

$$

AZZ503-504-507>509-301900-
SOUTHEAST ARIZONA

CITY           SKY/WX    TMP DP  RH WIND       PRES   REMARKS
TUCSON         SUNNY     92  30  11 E3        30.04F
6HR MIN TEMP:  67; 6HR MAX TEMP:  93;

DAVIS-MONTHAN  SUNNY     90  33  13 VRB3      30.02F
6HR MIN TEMP:  66; 6HR MAX TEMP:  90;

RYAN FIELD       N/A     91  36  14 CALM      30.02F
NOGALES        SUNNY     89  32  13 VRB5      30.10F
6HR MIN TEMP:  58; 6HR MAX TEMP:  89;

SIERRA VISTA   SUNNY     85  23  10 E10       30.17F
6HR MIN TEMP:  63; 6HR MAX TEMP:  85; 6HR PCP:  1.10;

DOUGLAS        SUNNY     89  26  10 VRB3      30.12F
6HR MIN TEMP:  51; 6HR MAX TEMP:  89;

SAFFORD        SUNNY     92  28  10 SE14      30.05F
6HR MIN TEMP:  60; 6HR MAX TEMP:  92;

$$

AZZ020-021-025-026-031-301900-
SOUTHWEST ARIZONA

CITY           SKY/WX    TMP DP  RH WIND       PRES   REMARKS
YUMA           SUNNY     91  38  15 CALM      29.90S
6HR MIN TEMP:  71; 6HR MAX TEMP:  92;

$$

CAZ031-033-041-043-047-048-061-301900-
SOUTHERN CALIFORNIA

CITY           SKY/WX    TMP DP  RH WIND       PRES   REMARKS
DOWNTOWN L.A.  MOSUNNY   71  58  63 CALM      29.96S HAZE
6HR MIN TEMP:  59; 6HR MAX TEMP:  71;

L.A. AIRPORT   CLOUDY    62  58  86 W5        29.98S
6HR MIN TEMP:  58; 6HR MAX TEMP:  62;

SAN DIEGO      CLOUDY    64  57  78 W6        30.01R
6HR MIN TEMP:  62; 6HR MAX TEMP:  64;

BURBANK        MOSUNNY   74  56  53 SE7       29.95F
6HR MIN TEMP:  58; 6HR MAX TEMP:  74;

ONTARIO        CLOUDY    76  57  51 W6        29.96R
6HR MIN TEMP:  58; 6HR MAX TEMP:  76;

RIVERSIDE      MOSUNNY   76  58  53 VRB3      29.95S HAZE
6HR MIN TEMP:  59; 6HR MAX TEMP:  76;

PALM SPRINGS   MOSUNNY   91  45  20 N5        29.93S
6HR MIN TEMP:  75; 6HR MAX TEMP:  91;

EL CENTRO NAS  MOSUNNY   87  51  28 CALM      29.90S
6HR MIN TEMP:  63; 6HR MAX TEMP:  88;

IMPERIAL       SUNNY     87  53  31 VRB3      29.88S
6HR MIN TEMP:  67; 6HR MAX TEMP:  87;

BLYTHE         SUNNY     95  36  12 S12       29.90S
6HR MIN TEMP:  68; 6HR MAX TEMP:  96;

NEEDLES        SUNNY     96  28   9 CALM      29.92S
6HR MIN TEMP:  74; 6HR MAX TEMP:  97;

$$

NVZ020-UTZ003-301900-
SOUTHERN NEVADA-UTAH

CITY           SKY/WX    TMP DP  RH WIND       PRES   REMARKS
LAS VEGAS      MOSUNNY   92  26   9 SE6       29.95S
6HR MIN TEMP:  74; 6HR MAX TEMP:  92;

SALT LAKE CITY PTSUNNY   78  42  27 S15       30.09F
6HR MIN TEMP:  57; 6HR MAX TEMP:  78;

$$

NMZ009-TXZ055-301900-
NEW MEXICO-WEST TEXAS

CITY           SKY/WX    TMP DP  RH WIND       PRES   REMARKS
ALBUQUERQUE    MOSUNNY   71  42  35 CALM      30.29S
6HR MIN TEMP:  59; 6HR MAX TEMP:  72;

EL PASO        MOSUNNY   81  48  31 E20       30.17S
6HR MIN TEMP:  68; 6HR MAX TEMP:  81;

$$


........................KEY........................
SKY/WX - SKY CONDITION/WEATHER
TMP    - TEMPERATURE IN FAHRENHEIT
DP     - DEW POINT IN FAHRENHEIT
RH     - RELATIVE HUMIDITY IN PERCENT
WIND   - DIRECTION AND SPEED IN MILES PER HOUR (MPH)
VRB    - VARIABLE WIND DIRECTION
PRES   - MEAN SEA LEVEL PRESSURE IN INCHES OF MERCURY
         F - FALLING PRESSURE   R - RISING PRESSURE
         S - STEADY PRESSURE
VSB    - VISIBILITY IN MILES
HX     - HEAT INDEX IN FAHRENHEIT
WCI    - WIND CHILL INDEX IN FAHRENHEIT
TC     - TEMPERATURE IN CELSIUS WHICH IS ALSO KNOWN AS
         TEMPERATURE IN CENTIGRADE
AFB    - AIR FORCE BASE
         LUKE AFB IS LUKE AIR FORCE BASE
         DAVIS-MONTHAN IS DAVIS-MONTHAN AIR FORCE BASE
NAS    - NAVAL AIR STATION
         EL CENTRO NAS IS EL CENTRO NAVAL AIR STATION
N/A    - NOT AVAILABLE




USA.gov is the U.S. government's official web portal to all federal, state and local government web resources and services.